Location: Prairie Dale
(45.6972°N, 104.5033°W)
Time: 16:07:54
(UTC+00:00)

Envisat - Pass Details

Date: 30 January 2022
Orbit: 764 x 765 km, 98.2° (Epoch: 15 May)

Event Time Altitude Azimuth Distance (km) Brightness Sun altitude
Rises 11:49:53 0° 14° (NNE) 3,242 6.4 -26.6°
Reaches altitude 10° 11:52:12 10° 16° (NNE) 2,312 5.7 -26.2°
Maximum altitude 11:57:18 77° 103° (ESE) 789 3.0 -25.3°
Drops below altitude 10° 12:02:23 10° 190° (S) 2,296 5.4 -24.4°
Sets 12:04:40 0° 191° (SSW) 3,218 6.1 -24.0°
